Weather observations for the past three days for
George M Bryan Airport, Starkville
| Date | Time (cdt) | Wind (mph) | Vis. (mi.) | Weather | Sky Cond. | Temperature (ºF) | Relative Humidity | Wind Chill (°F) | Heat Index (°F) | Pressure | Precipitation (in) | ||||||
|---|---|---|---|---|---|---|---|---|---|---|---|---|---|---|---|---|---|
| Air | Dwpt | 6 hour | altimeter (in) | sea level (mb) | 1 hr | 3 hr | 6 hr | ||||||||||
| Max. | Min. | ||||||||||||||||
| 10 | 02:55 | Calm | 0.50 | Unknown Precip Fog | OVC002 | 60.8 | 60.8 | 100% | 29.91 | 0.0 | |||||||
| 10 | 02:35 | Calm | 0.15 | Fog | OVC002 | 60.8 | 60.8 | 100% | 29.91 | 0.0 | |||||||
| 10 | 02:15 | Calm | 0.50 | Unknown Precip Fog | OVC002 | 60.8 | 60.8 | 100% | 29.91 | 0.0 | |||||||
| 10 | 01:55 | Calm | 0.25 | Fog | OVC002 | 60.8 | 60.8 | 100% | 29.91 | 0.0 | |||||||
| 10 | 01:15 | Calm | 0.15 | Fog | OVC002 | 62.6 | 62.6 | 100% | 29.92 | 0.0 | |||||||
| 10 | 00:55 | Calm | 0.25 | Fog | BKN001 | 60.8 | 60.8 | 100% | 29.92 | 0.0 | |||||||
| 10 | 00:35 | Calm | 0.25 | Fog | BKN001 | 60.8 | 60.8 | 100% | 29.92 | 0.0 | |||||||
| 10 | 00:15 | Calm | 1.00 | Fog/Mist | CLR | 62.6 | 62.6 | 100% | 29.92 | 0.0 | |||||||
| 09 | 23:55 | Calm | 0.25 | Fog | VV002 | 62.6 | 62.6 | 100% | 29.92 | 0.0 | |||||||
| 09 | 23:35 | Calm | 1.50 | Unknown Precip Fog/Mist | CLR | 62.6 | 62.6 | 100% | 29.92 | 0.0 | |||||||
| 09 | 23:15 | Calm | 0.50 | Unknown Precip Fog/Mist | VV005 | 62.6 | 62.6 | 100% | 29.93 | 0.0 | |||||||
| 09 | 22:55 | Calm | 0.75 | Unknown Precip Fog/Mist | VV005 | 62.6 | 62.6 | 100% | 29.92 | 0.0 | |||||||
| 09 | 22:35 | Calm | 5.00 | Fog/Mist | CLR | 64.4 | 64.4 | 100% | 29.93 | 0.0 | |||||||
| 09 | 22:15 | Calm | 8.00 | Fair | CLR | 62.6 | 62.6 | 100% | 29.93 | 0.0 | |||||||
| 09 | 21:55 | Calm | 1.25 | Fog/Mist | SCT015 | 64.4 | 64.4 | 100% | 29.93 | 0.0 | |||||||
| 09 | 21:35 | Calm | 1.25 | Fog/Mist | SCT014 | 64.4 | 64.4 | 100% | 29.92 | 0.0 | |||||||
| 09 | 21:15 | Calm | 9.00 | Fair | CLR | 64.4 | 64.4 | 100% | 29.91 | 0.0 | |||||||
| 09 | 20:35 | Calm | 10.00 | Fair | CLR | 66.2 | 66.2 | 100% | 29.9 | 0.0 | |||||||
| 09 | 20:15 | Calm | 10.00 | Fair | CLR | 66.2 | 66.2 | 100% | 29.89 | 0.0 | |||||||
| 09 | 19:55 | Calm | 10.00 | Fair | CLR | 68 | 68 | 100% | 29.88 | 0.0 | |||||||
| 09 | 19:35 | S 3 | 10.00 | Fair | CLR | 69.8 | 69.8 | 100% | 29.86 | 0.0 | |||||||
| 09 | 18:55 | S 5 | 10.00 | Fair | CLR | 71.6 | 71.6 | 100% | 29.85 | 0.0 | |||||||
| 09 | 18:35 | SE 3 | 10.00 | Fair | CLR | 73.4 | 71.6 | 94% | 29.85 | 0.0 | |||||||
| 09 | 18:15 | Calm | 10.00 | Fair | CLR | 71.6 | 71.6 | 100% | 29.85 | 0.0 | |||||||
| 09 | 17:55 | Calm | 10.00 | Fair | CLR | 71.6 | 71.6 | 100% | 29.85 | 0.0 | |||||||
| 09 | 17:15 | S 3 | 10.00 | Fair | CLR | 73.4 | 69.8 | 89% | 29.85 | 0.0 | |||||||
| 09 | 16:55 | Calm | 10.00 | Fair | CLR | 75.2 | 69.8 | 83% | 75 | 29.84 | 0.0 | ||||||
| 09 | 16:35 | Calm | 10.00 | Fair | CLR | 75.2 | 68 | 78% | 76 | 29.84 | 0.0 | ||||||
| 09 | 16:15 | Calm | 10.00 | Fair | CLR | 75.2 | 68 | 78% | 76 | 29.84 | 0.0 | ||||||
| 09 | 15:55 | Calm | 10.00 | Fair | CLR | 75.2 | 69.8 | 83% | 75 | 29.83 | 0.0 | ||||||
| 09 | 15:35 | Calm | 10.00 | Fair | CLR | 73.4 | 69.8 | 89% | 29.84 | 0.0 | |||||||
| 09 | 15:15 | Calm | 10.00 | Fair | CLR | 73.4 | 69.8 | 89% | 29.85 | 0.0 | |||||||
| 09 | 14:55 | Calm | 10.00 | Fair | CLR | 73.4 | 68 | 83% | 29.85 | 0.0 | |||||||
| 09 | 14:35 | Calm | 10.00 | Fair | CLR | 73.4 | 69.8 | 89% | 29.86 | 0.0 | |||||||
| 09 | 14:15 | Calm | 10.00 | A Few Clouds | FEW021 | 73.4 | 69.8 | 89% | 29.86 | 0.0 | |||||||
| 09 | 13:55 | S 5 | 10.00 | Partly Cloudy | SCT021 | 73.4 | 69.8 | 89% | 29.87 | 0.0 | |||||||
| 09 | 13:35 | S 3 | 10.00 | Fair | CLR | 71.6 | 68 | 88% | 29.88 | 0.0 | |||||||
| 09 | 12:55 | Calm | 10.00 | Partly Cloudy | SCT018 | 71.6 | 69.8 | 94% | 29.89 | 0.0 | |||||||
| 09 | 12:35 | Calm | 10.00 | A Few Clouds | FEW016 FEW021 | 69.8 | 69.8 | 100% | 29.9 | 0.0 | |||||||
| 09 | 12:15 | S 5 | 10.00 | Partly Cloudy | SCT013 SCT019 | 69.8 | 69.8 | 100% | 29.9 | 0.0 | |||||||
| 09 | 11:55 | S 3 | 10.00 | Partly Cloudy | FEW012 SCT019 | 68 | 68 | 100% | 29.91 | 0.0 | |||||||
| 09 | 11:35 | S 5 | 10.00 | Mostly Cloudy | SCT009 BKN013 BKN018 | 68 | 68 | 100% | 29.91 | 0.0 | |||||||
| 09 | 11:15 | SE 6 | 10.00 | Overcast | SCT008 OVC018 | 68 | 68 | 100% | 29.91 | 0.0 | |||||||
| 09 | 10:55 | Calm | 10.00 | Overcast | SCT013 OVC018 | 68 | 68 | 100% | 29.91 | 0.0 | |||||||
| 09 | 10:15 | Calm | 10.00 | Overcast | OVC007 | 66.2 | 66.2 | 100% | 29.91 | 0.0 | |||||||
| 09 | 09:55 | Calm | 10.00 | Overcast | OVC006 | 66.2 | 66.2 | 100% | 29.9 | 0.0 | |||||||
| 09 | 09:35 | Calm | 10.00 | Overcast | OVC005 | 66.2 | 66.2 | 100% | 29.89 | 0.0 | |||||||
| 09 | 09:15 | SE 5 | 9.00 | Overcast | OVC004 | 64.4 | 64.4 | 100% | 29.9 | 0.0 | |||||||
| 09 | 08:55 | S 7 | 4.00 | Fog/Mist | OVC003 | 62.6 | 62.6 | 100% | 29.9 | 0.0 | |||||||
| 09 | 08:35 | SE 5 | 6.00 | Fog/Mist | OVC003 | 62.6 | 62.6 | 100% | 29.89 | 0.0 | |||||||
| 09 | 08:15 | SE 3 | 7.00 | Overcast | OVC003 | 62.6 | 62.6 | 100% | 29.88 | 0.0 | |||||||
| 09 | 07:55 | Calm | 9.00 | Overcast | OVC004 | 62.6 | 62.6 | 100% | 29.88 | 0.0 | |||||||
| 09 | 07:35 | Calm | 10.00 | Overcast | OVC005 | 62.6 | 62.6 | 100% | 29.87 | 0.0 | |||||||
| 09 | 07:15 | Calm | 9.00 | Overcast | OVC005 | 62.6 | 62.6 | 100% | 29.86 | 0.0 | |||||||
| 09 | 06:55 | Calm | 8.00 | Overcast | OVC006 | 62.6 | 62.6 | 100% | 29.85 | 0.0 | |||||||
| 09 | 06:15 | Calm | 9.00 | Overcast | OVC005 | 60.8 | 60.8 | 100% | 29.85 | 0.0 | |||||||
| 09 | 05:55 | Calm | 9.00 | Thunderstorm in Vicinity | OVC005 | 60.8 | 60.8 | 100% | 29.84 | 0.0 | |||||||
| 09 | 05:35 | Calm | 9.00 | Thunderstorm in Vicinity | OVC005 | 60.8 | 60.8 | 100% | 29.84 | 0.0 | |||||||
| 09 | 05:15 | S 3 | 8.00 | Overcast | OVC008 | 60.8 | 60.8 | 100% | 29.83 | 0.0 | |||||||
| 09 | 04:55 | S 3 | 7.00 | Overcast | OVC009 | 60.8 | 60.8 | 100% | 29.84 | 0.0 | |||||||
| 09 | 04:35 | Calm | 9.00 | Overcast | OVC010 | 60.8 | 60.8 | 100% | 29.83 | 0.0 | |||||||
| 09 | 04:15 | Calm | 7.00 | Thunderstorm in Vicinity | BKN011 BKN017 | 60.8 | 60.8 | 100% | 29.82 | 0.0 | |||||||
| 09 | 03:55 | S 5 | 8.00 | A Few Clouds | FEW010 | 60.8 | 60.8 | 100% | 29.83 | 0.0 | |||||||
| 09 | 03:35 | Calm | 8.00 | Thunderstorm in Vicinity | FEW003 BKN011 BKN025 | 60.8 | 60.8 | 100% | 29.84 | 0.0 | |||||||
| 09 | 03:15 | Calm | 10.00 | Overcast | OVC012 | 60.8 | 60.8 | 100% | 29.84 | 0.0 | |||||||
| 09 | 02:55 | Calm | 9.00 | Thunderstorm in Vicinity | FEW004 BKN014 BKN019 | 60.8 | 60.8 | 100% | 29.85 | 0.0 | |||||||
| 09 | 02:35 | Calm | 9.00 | Partly Cloudy | SCT003 | 60.8 | 60.8 | 100% | 29.85 | 0.0 | |||||||
| 09 | 00:55 | Calm | 10.00 | Thunderstorm in Vicinity | OVC006 | 60.8 | 60.8 | 100% | 29.91 | 0.0 | |||||||
| 09 | 00:35 | S 5 | 10.00 | Overcast | OVC007 | 60.8 | 60.8 | 100% | 29.88 | 0.0 | |||||||
| 09 | 00:15 | S 3 | 10.00 | Overcast | OVC009 | 60.8 | 60.8 | 100% | 29.87 | 0.0 | |||||||
| 08 | 23:55 | Calm | 10.00 | Overcast | OVC011 | 60.8 | 60.8 | 100% | 29.87 | 0.0 | |||||||
| 08 | 23:35 | S 5 | 10.00 | Overcast | OVC011 | 60.8 | 60.8 | 100% | 29.87 | 0.0 | |||||||
| 08 | 23:15 | Calm | 10.00 | Overcast | OVC013 | 60.8 | 60.8 | 100% | 29.87 | 0.0 | |||||||
| 08 | 22:55 | Calm | 10.00 | Overcast | OVC014 | 60.8 | 60.8 | 100% | 29.87 | 0.0 | |||||||
| 08 | 22:35 | S 5 | 10.00 | Overcast | OVC014 | 60.8 | 60.8 | 100% | 29.87 | 0.0 | |||||||
| 08 | 22:15 | S 3 | 10.00 | Mostly Cloudy | BKN015 | 59 | 59 | 100% | 29.87 | 0.0 | |||||||
| 08 | 21:55 | S 3 | 10.00 | Mostly Cloudy | BKN019 | 60.8 | 60.8 | 100% | 29.86 | 0.0 | |||||||
| 08 | 21:15 | Calm | 10.00 | Overcast | BKN022 BKN026 OVC035 | 60.8 | 60.8 | 100% | 29.87 | 0.0 | |||||||
| 08 | 20:55 | S 3 | 10.00 | Overcast | BKN028 OVC035 | 60.8 | 60.8 | 100% | 29.88 | 0.0 | |||||||
| 08 | 20:35 | SE 3 | 10.00 | Overcast | OVC028 | 62.6 | 62.6 | 100% | 29.88 | 0.0 | |||||||
| 08 | 20:15 | Calm | 10.00 | Overcast | OVC032 | 62.6 | 62.6 | 100% | 29.88 | 0.0 | |||||||
| 08 | 19:55 | Calm | 10.00 | Mostly Cloudy | BKN035 BKN110 | 62.6 | 62.6 | 100% | 29.88 | 0.0 | |||||||
| 08 | 19:35 | SE 6 | 10.00 | A Few Clouds | FEW110 | 62.6 | 62.6 | 100% | 29.87 | 0.0 | |||||||
| 08 | 19:15 | SE 5 | 10.00 | A Few Clouds | FEW120 | 64.4 | 64.4 | 100% | 29.87 | 0.0 | |||||||
| 08 | 18:55 | S 6 | 10.00 | Fair | CLR | 64.4 | 64.4 | 100% | 29.88 | 0.0 | |||||||
| 08 | 18:35 | S 7 | 10.00 | Fair | CLR | 64.4 | 62.6 | 94% | 29.88 | 0.0 | |||||||
| 08 | 18:15 | SE 8 | 10.00 | Fair | CLR | 64.4 | 62.6 | 94% | 29.87 | 0.0 | |||||||
| 08 | 17:55 | S 10 | 10.00 | A Few Clouds | FEW120 | 66.2 | 62.6 | 88% | 29.88 | 0.0 | |||||||
| 08 | 17:35 | S 10 G 17 | 10.00 | Fair | CLR | 66.2 | 60.8 | 83% | 29.88 | 0.0 | |||||||
| 08 | 17:15 | S 12 | 10.00 | Fair | CLR | 66.2 | 60.8 | 83% | 29.89 | 0.0 | |||||||
| 08 | 16:55 | SE 9 | 10.00 | A Few Clouds | FEW120 | 66.2 | 59 | 78% | 29.91 | 0.0 | |||||||
| 08 | 16:35 | SE 8 | 10.00 | Fair | CLR | 68 | 59 | 73% | 29.91 | 0.0 | |||||||
| 08 | 16:15 | S 9 | 10.00 | Fair | CLR | 68 | 60.8 | 78% | 29.91 | 0.0 | |||||||
| 08 | 15:55 | S 9 | 10.00 | Fair | CLR | 66.2 | 59 | 78% | 29.92 | 0.0 | |||||||
| 08 | 15:35 | S 9 G 15 | 10.00 | Fair | CLR | 66.2 | 57.2 | 73% | 29.94 | 0.0 | |||||||
| 08 | 15:15 | S 10 | 10.00 | Fair | CLR | 68 | 57.2 | 69% | 29.93 | 0.0 | |||||||
| 08 | 14:55 | S 9 | 9.00 | Light Rain | CLR | 68 | 55.4 | 64% | 29.93 | 0.0 | |||||||
| 08 | 14:15 | SE 8 | 10.00 | Fair | CLR | 68 | 55.4 | 64% | 29.93 | 0.0 | |||||||
| 08 | 13:55 | S 12 | 10.00 | Fair | CLR | 68 | 55.4 | 64% | 29.95 | 0.0 | |||||||
| 08 | 13:35 | SE 9 | 10.00 | A Few Clouds | FEW110 | 68 | 53.6 | 60% | 29.95 | 0.0 | |||||||
| 08 | 13:15 | SE 8 | 10.00 | Fair | CLR | 68 | 55.4 | 64% | 29.95 | 0.0 | |||||||
| 08 | 12:55 | SE 8 | 10.00 | Fair | CLR | 68 | 53.6 | 60% | 29.98 | 0.0 | |||||||
| 08 | 12:35 | SE 7 | 10.00 | Fair | CLR | 66.2 | 53.6 | 64% | 29.97 | 0.0 | |||||||
| 08 | 12:15 | SE 9 | 10.00 | Fair | CLR | 66.2 | 51.8 | 60% | 29.99 | 0.0 | |||||||
| 08 | 11:55 | E 6 | 10.00 | Fair | CLR | 66.2 | 53.6 | 64% | 29.97 | 0.0 | |||||||
| 08 | 11:35 | SE 6 | 10.00 | Fair | CLR | 66.2 | 51.8 | 60% | 29.99 | 0.0 | |||||||
| 08 | 11:15 | SE 8 | 10.00 | Fair | CLR | 66.2 | 51.8 | 60% | 30 | 0.0 | |||||||
| 08 | 10:55 | E 5 | 10.00 | Fair | CLR | 66.2 | 53.6 | 64% | 30.01 | 0.0 | |||||||
| 08 | 10:35 | SE 8 | 10.00 | Fair | CLR | 66.2 | 53.6 | 64% | 30.02 | 0.0 | |||||||
| 08 | 10:15 | Vrbl 7 G 13 | 10.00 | Fair | CLR | 66.2 | 53.6 | 64% | 30.02 | 0.0 | |||||||
| 08 | 09:55 | E 9 | 10.00 | Fair | CLR | 66.2 | 51.8 | 60% | 30.03 | 0.0 | |||||||
| 08 | 09:35 | E 7 | 10.00 | Fair | CLR | 64.4 | 55.4 | 73% | 30.03 | 0.0 | |||||||
| 08 | 08:55 | Vrbl 6 | 10.00 | Fair | CLR | 62.6 | 55.4 | 77% | 30.03 | 0.0 | |||||||
| 08 | 08:35 | SE 6 | 10.00 | Fair | CLR | 60.8 | 55.4 | 83% | 30.03 | 0.0 | |||||||
| 08 | 08:15 | E 5 | 10.00 | Fair | CLR | 59 | 57.2 | 94% | 30.04 | 0.0 | |||||||
| 08 | 07:55 | Vrbl 6 | 10.00 | Fair | CLR | 57.2 | 57.2 | 100% | 30.03 | 0.0 | |||||||
| 08 | 07:35 | Calm | 10.00 | Fair | CLR | 55.4 | 55.4 | 100% | 30.03 | 0.0 | |||||||
| 08 | 07:15 | N 3 | 10.00 | Fair | CLR | 53.6 | 53.6 | 100% | 30.03 | 0.0 | |||||||
| 08 | 06:55 | Calm | 10.00 | Fair | CLR | 53.6 | 53.6 | 100% | 30.04 | 0.0 | |||||||
| 08 | 06:35 | Calm | 10.00 | Fair | CLR | 51.8 | 51.8 | 100% | 30.03 | 0.0 | |||||||
| 08 | 06:15 | Calm | 9.00 | Fair | CLR | 51.8 | 51.8 | 100% | 30.01 | 0.0 | |||||||
| 08 | 05:55 | Calm | 9.00 | Fair | CLR | 51.8 | 51.8 | 100% | 30 | 0.0 | |||||||
| 08 | 05:35 | Calm | 9.00 | Fair | CLR | 51.8 | 51.8 | 100% | 30 | 0.0 | |||||||
| 08 | 04:55 | Calm | 9.00 | Partly Cloudy | SCT039 | 51.8 | 51.8 | 100% | 29.99 | 0.0 | |||||||
| 08 | 03:55 | Calm | 10.00 | Fair | CLR | 53.6 | 53.6 | 100% | 29.98 | 0.0 | |||||||
| 08 | 03:35 | Calm | 10.00 | Fair | CLR | 53.6 | 53.6 | 100% | 29.97 | 0.0 | |||||||
| 08 | 03:15 | Calm | 10.00 | Fair | CLR | 53.6 | 53.6 | 100% | 29.97 | 0.0 | |||||||
| 08 | 02:55 | Calm | 10.00 | Fair | CLR | 53.6 | 53.6 | 100% | 29.96 | 0.0 | |||||||
| 08 | 02:35 | Calm | 10.00 | Fair | CLR | 53.6 | 53.6 | 100% | 29.96 | 0.0 | |||||||
| 08 | 02:15 | Calm | 10.00 | Fair | CLR | 53.6 | 53.6 | 100% | 29.97 | 0.0 | |||||||
| 08 | 01:55 | Calm | 10.00 | Fair | CLR | 53.6 | 53.6 | 100% | 29.97 | 0.0 | |||||||
| 08 | 01:35 | Calm | 10.00 | Fair | CLR | 53.6 | 53.6 | 100% | 29.98 | 0.0 | |||||||
| 08 | 01:15 | Calm | 10.00 | Fair | CLR | 55.4 | 55.4 | 100% | 29.99 | 0.0 | |||||||
| 08 | 00:55 | Calm | 10.00 | Fair | CLR | 55.4 | 55.4 | 100% | 29.99 | 0.0 | |||||||
| 08 | 00:35 | Calm | 10.00 | Fair | CLR | 55.4 | 55.4 | 100% | 29.99 | 0.0 | |||||||
| 08 | 00:15 | Calm | 10.00 | Fair | CLR | 55.4 | 55.4 | 100% | 29.99 | 0.0 | |||||||
| 07 | 23:55 | Calm | 10.00 | Fair | CLR | 55.4 | 55.4 | 100% | 29.99 | 0.0 | |||||||
| 07 | 23:35 | Calm | 10.00 | Fair | CLR | 55.4 | 55.4 | 100% | 30 | 0.0 | |||||||
| 07 | 23:15 | Calm | 10.00 | Fair | CLR | 57.2 | 57.2 | 100% | 29.99 | 0.0 | |||||||
| 07 | 22:55 | Calm | 10.00 | Fair | CLR | 57.2 | 57.2 | 100% | 30 | 0.0 | |||||||
| 07 | 22:35 | Calm | 10.00 | Fair | CLR | 57.2 | 57.2 | 100% | 30 | 0.0 | |||||||
| 07 | 22:15 | Calm | 10.00 | Fair | CLR | 59 | 59 | 100% | 30 | 0.0 | |||||||
| 07 | 21:55 | Calm | 10.00 | Fair | CLR | 59 | 59 | 100% | 29.99 | 0.0 | |||||||
| 07 | 21:35 | Calm | 10.00 | A Few Clouds | FEW039 | 59 | 59 | 100% | 29.99 | 0.0 | |||||||
| 07 | 21:15 | Calm | 10.00 | Partly Cloudy | SCT039 | 59 | 59 | 100% | 29.98 | 0.0 | |||||||
| 07 | 20:55 | Calm | 10.00 | Mostly Cloudy | BKN039 | 59 | 59 | 100% | 29.98 | 0.0 | |||||||
| 07 | 20:35 | Calm | 10.00 | Partly Cloudy | SCT041 | 62.6 | 57.2 | 83% | 29.97 | 0.0 | |||||||
| 07 | 20:15 | Vrbl 3 | 10.00 | Fair | CLR | 62.6 | 55.4 | 77% | 29.97 | 0.0 | |||||||
| 07 | 19:55 | Vrbl 3 | 10.00 | Fair | CLR | 64.4 | 55.4 | 73% | 29.97 | 0.0 | |||||||
| 07 | 19:35 | N 5 | 10.00 | Fair | CLR | 64.4 | 55.4 | 73% | 29.97 | 0.0 | |||||||
| 07 | 19:15 | N 3 | 10.00 | Fair | CLR | 66.2 | 57.2 | 73% | 29.96 | 0.0 | |||||||
| 07 | 18:55 | Calm | 9.00 | Fair | CLR | 66.2 | 55.4 | 68% | 29.96 | 0.0 | |||||||
| 07 | 18:35 | Calm | 10.00 | Fair | CLR | 68 | 53.6 | 60% | 29.96 | 0.0 | |||||||
| 07 | 18:15 | Vrbl 3 | 10.00 | Fair | CLR | 69.8 | 51.8 | 53% | 29.96 | 0.0 | |||||||
| 07 | 17:55 | Vrbl 5 | 10.00 | Fair | CLR | 69.8 | 51.8 | 53% | 29.96 | 0.0 | |||||||
| 07 | 17:35 | Calm | 10.00 | Fair | CLR | 69.8 | 53.6 | 57% | 29.95 | 0.0 | |||||||
| 07 | 17:15 | Vrbl 6 | 10.00 | A Few Clouds | FEW043 | 69.8 | 55.4 | 60% | 29.95 | 0.0 | |||||||
| 07 | 16:55 | NE 3 | 10.00 | A Few Clouds | FEW043 | 69.8 | 55.4 | 60% | 29.95 | 0.0 | |||||||
| 07 | 16:35 | Vrbl 6 | 10.00 | Fair | CLR | 69.8 | 55.4 | 60% | 29.95 | 0.0 | |||||||
| 07 | 16:15 | N 8 | 10.00 | Fair | CLR | 69.8 | 53.6 | 57% | 29.94 | 0.0 | |||||||
| 07 | 15:15 | NW 8 | 10.00 | Fair | CLR | 69.8 | 55.4 | 60% | 29.96 | 0.0 | |||||||
| 07 | 14:55 | N 12 | 10.00 | Fair | CLR | 69.8 | 55.4 | 60% | 29.95 | 0.0 | |||||||
| 07 | 14:35 | Vrbl 6 | 10.00 | Fair | CLR | 69.8 | 55.4 | 60% | 29.97 | 0.0 | |||||||
| 07 | 14:15 | N 8 | 10.00 | Fair | CLR | 69.8 | 55.4 | 60% | 29.97 | 0.0 | |||||||
| 07 | 13:55 | Vrbl 7 | 10.00 | Fair | CLR | 69.8 | 53.6 | 57% | 29.97 | 0.0 | |||||||
| 07 | 13:35 | NE 6 G 15 | 10.00 | Fair | CLR | 68 | 55.4 | 64% | 29.98 | 0.0 | |||||||
| 07 | 13:15 | Calm | 10.00 | Fair | CLR | 68 | 55.4 | 64% | 29.98 | 0.0 | |||||||
| 07 | 12:55 | N 10 | 10.00 | Fair | CLR | 68 | 55.4 | 64% | 29.98 | 0.0 | |||||||
| 07 | 12:35 | N 9 | 10.00 | Fair | CLR | 68 | 57.2 | 69% | 29.99 | 0.0 | |||||||
| 07 | 12:15 | NE 8 | 10.00 | A Few Clouds | FEW032 | 66.2 | 57.2 | 73% | 29.99 | 0.0 | |||||||
| 07 | 11:55 | NE 13 | 10.00 | Partly Cloudy | SCT030 | 66.2 | 57.2 | 73% | 29.99 | 0.0 | |||||||
| 07 | 11:35 | Vrbl 7 G 15 | 10.00 | Partly Cloudy | SCT028 | 64.4 | 57.2 | 78% | 30 | 0.0 | |||||||
| 07 | 11:15 | N 7 G 14 | 10.00 | Mostly Cloudy | BKN025 | 64.4 | 57.2 | 78% | 30.01 | 0.0 | |||||||
| 07 | 10:55 | N 7 G 15 | 10.00 | Mostly Cloudy | BKN024 | 64.4 | 59 | 83% | 30.01 | 0.0 | |||||||
| 07 | 10:35 | Vrbl 7 G 15 | 10.00 | Mostly Cloudy | BKN021 | 62.6 | 57.2 | 83% | 30.01 | 0.0 | |||||||
| 07 | 10:15 | N 9 | 10.00 | Mostly Cloudy | BKN017 | 62.6 | 60.8 | 94% | 29.99 | 0.0 | |||||||
| 07 | 09:55 | N 9 | 10.00 | Overcast | OVC016 | 59 | 59 | 100% | 30 | 0.0 | |||||||
| 07 | 09:35 | N 8 | 10.00 | Mostly Cloudy | SCT015 BKN027 | 59 | 59 | 100% | 29.99 | 0.0 | |||||||
| 07 | 09:15 | NE 9 G 16 | 10.00 | Overcast | BKN014 OVC027 | 59 | 59 | 100% | 29.98 | 0.0 | |||||||
| 07 | 08:55 | N 7 G 13 | 10.00 | Overcast | OVC014 | 57.2 | 57.2 | 100% | 29.99 | 0.0 | |||||||
| 07 | 08:35 | Vrbl 6 G 13 | 10.00 | Overcast | OVC013 | 55.4 | 55.4 | 100% | 30 | 0.0 | |||||||
| 07 | 08:15 | N 7 G 14 | 10.00 | Overcast | OVC009 | 55.4 | 55.4 | 100% | 29.99 | 0.0 | |||||||
| 07 | 07:55 | Vrbl 6 | 10.00 | Overcast | OVC008 | 55.4 | 55.4 | 100% | 29.96 | 0.0 | |||||||
| 07 | 07:35 | Calm | 10.00 | Overcast | OVC007 | 55.4 | 55.4 | 100% | 29.96 | 0.0 | |||||||
| 07 | 07:15 | N 6 G 14 | 10.00 | Overcast | OVC007 | 55.4 | 55.4 | 100% | 29.96 | 0.0 | |||||||
| 07 | 06:55 | Vrbl 3 G 12 | 10.00 | Overcast | OVC007 | 55.4 | 55.4 | 100% | 29.95 | 0.0 | |||||||
| 07 | 06:35 | Calm | 10.00 | Overcast | OVC008 | 55.4 | 55.4 | 100% | 29.93 | 0.0 | |||||||
| 07 | 06:15 | Vrbl 5 | 10.00 | Overcast | OVC008 | 55.4 | 55.4 | 100% | 29.92 | 0.0 | |||||||
| 07 | 05:55 | Vrbl 3 | 10.00 | Overcast | OVC007 | 55.4 | 55.4 | 100% | 29.94 | 0.0 | |||||||
| 07 | 05:35 | Vrbl 6 | 10.00 | Overcast | OVC006 | 55.4 | 55.4 | 100% | 29.92 | 0.0 | |||||||
| 07 | 05:15 | Vrbl 7 | 8.00 | Overcast | OVC007 | 55.4 | 55.4 | 100% | 29.91 | 0.0 | |||||||
| 07 | 04:55 | N 6 | 6.00 | Light Rain Fog/Mist | OVC007 | 55.4 | 55.4 | 100% | 29.9 | 0.0 | |||||||
| 07 | 04:35 | Vrbl 5 | 8.00 | Overcast | OVC007 | 55.4 | 55.4 | 100% | 29.9 | 0.0 | |||||||
| 07 | 04:15 | Calm | 8.00 | Overcast | OVC007 | 55.4 | 55.4 | 100% | 29.91 | 0.0 | |||||||
| 07 | 03:55 | Vrbl 5 | 8.00 | Overcast | BKN006 OVC010 | 55.4 | 55.4 | 100% | 29.92 | 0.0 | |||||||
| 07 | 03:35 | N 5 | 7.00 | Overcast | OVC004 | 55.4 | 55.4 | 100% | 29.9 | 0.0 | |||||||
| 07 | 03:15 | N 8 G 14 | 7.00 | Overcast | OVC004 | 55.4 | 55.4 | 100% | 29.89 | 0.0 | |||||||
| Date | Time (cdt) | Wind (mph) | Vis. (mi.) | Weather | Sky Cond. | Air | Dwpt | Max. | Min. | Relative Humidity | Wind Chill (°F) | Heat Index (°F) | altimeter (in) | sea level (mb) | 1 hr | 3 hr | 6 hr |
| 6 hour | |||||||||||||||||
| Temperature (ºF) | Pressure | Precipitation (in) | |||||||||||||||